TimeCDT,TemperatureF,Dew PointF,Humidity,Sea Level PressureIn,VisibilityMPH,Wind Direction,Wind SpeedMPH,Gust SpeedMPH,PrecipitationIn,Events,Conditions,WindDirDegrees,DateUTC
12:15 AM,60.4,54.9,82,30.16,10.0,South,9.2,-,N/A,,Mostly Cloudy,180,2013-03-29 05:15:00
12:35 AM,59.9,54.9,83,30.16,10.0,South,9.2,-,N/A,,Mostly Cloudy,190,2013-03-29 05:35:00
12:55 AM,60.3,55.0,83,30.17,10.0,South,8.1,-,N/A,,Overcast,190,2013-03-29 05:55:00
1:15 AM,60.1,55.0,83,30.16,10.0,South,8.1,16.1,N/A,,Mostly Cloudy,180,2013-03-29 06:15:00
1:35 AM,59.2,54.9,86,30.16,10.0,South,9.2,-,N/A,,Clear,190,2013-03-29 06:35:00
1:55 AM,59.0,54.7,86,30.16,10.0,South,6.9,-,N/A,,Clear,180,2013-03-29 06:55:00
2:15 AM,57.7,54.3,88,30.16,10.0,South,6.9,-,N/A,,Clear,190,2013-03-29 07:15:00
2:35 AM,57.4,54.1,89,30.15,10.0,South,8.1,-,N/A,,Clear,180,2013-03-29 07:35:00
2:55 AM,57.0,53.8,89,30.15,10.0,South,6.9,-,N/A,,Clear,190,2013-03-29 07:55:00
3:15 AM,56.5,53.6,90,30.14,10.0,South,6.9,-,N/A,,Clear,190,2013-03-29 08:15:00
3:35 AM,56.3,53.6,91,30.14,10.0,South,5.8,-,N/A,,Clear,190,2013-03-29 08:35:00
3:55 AM,54.9,52.9,93,30.13,10.0,South,4.6,-,N/A,,Clear,180,2013-03-29 08:55:00
4:15 AM,54.5,52.7,94,30.13,10.0,South,3.5,-,N/A,,Clear,180,2013-03-29 09:15:00
4:35 AM,54.5,52.7,94,30.12,10.0,South,4.6,-,N/A,,Clear,180,2013-03-29 09:35:00
4:55 AM,54.5,52.7,94,30.12,10.0,Calm,Calm,-,N/A,,Clear,0,2013-03-29 09:55:00
5:15 AM,54.9,53.2,94,30.12,10.0,SSE,3.5,-,N/A,,Scattered Clouds,160,2013-03-29 10:15:00
5:35 AM,55.4,53.8,94,30.12,10.0,South,3.5,-,N/A,,Overcast,170,2013-03-29 10:35:00
5:55 AM,56.3,54.5,94,30.12,10.0,SSE,3.5,-,N/A,,Overcast,160,2013-03-29 10:55:00
6:15 AM,56.5,54.5,93,30.12,10.0,South,5.8,-,N/A,,Overcast,170,2013-03-29 11:15:00
6:35 AM,57.0,54.7,92,30.12,10.0,South,6.9,-,N/A,,Mostly Cloudy,170,2013-03-29 11:35:00
6:55 AM,55.9,54.0,93,30.13,10.0,South,5.8,-,N/A,,Mostly Cloudy,170,2013-03-29 11:55:00
7:15 AM,55.6,53.8,94,30.14,10.0,South,4.6,-,N/A,,Mostly Cloudy,180,2013-03-29 12:15:00
7:35 AM,56.1,54.1,93,30.14,10.0,South,3.5,-,N/A,,Mostly Cloudy,180,2013-03-29 12:35:00
7:55 AM,56.3,54.5,94,30.15,10.0,South,4.6,-,N/A,,Mostly Cloudy,180,2013-03-29 12:55:00
8:15 AM,57.2,54.9,92,30.14,10.0,South,4.6,-,N/A,,Mostly Cloudy,170,2013-03-29 13:15:00
8:35 AM,58.3,55.2,90,30.14,10.0,SSE,3.5,-,N/A,,Scattered Clouds,160,2013-03-29 13:35:00
8:55 AM,59.9,56.1,87,30.14,10.0,South,5.8,-,N/A,,Mostly Cloudy,170,2013-03-29 13:55:00
9:15 AM,61.2,56.3,84,30.15,10.0,South,12.7,17.3,N/A,,Overcast,170,2013-03-29 14:15:00
9:35 AM,62.2,55.8,79,30.16,10.0,South,17.3,21.9,N/A,,Mostly Cloudy,180,2013-03-29 14:35:00
9:55 AM,65.5,55.8,71,30.16,10.0,South,16.1,20.7,N/A,,Mostly Cloudy,190,2013-03-29 14:55:00
10:15 AM,65.3,55.0,69,30.16,10.0,SSW,17.3,25.3,N/A,,Overcast,200,2013-03-29 15:15:00
10:35 AM,64.6,55.4,72,30.17,10.0,SSW,17.3,21.9,N/A,,Overcast,210,2013-03-29 15:35:00
10:55 AM,65.3,55.8,71,30.17,10.0,SSW,21.9,27.6,N/A,,Mostly Cloudy,200,2013-03-29 15:55:00
11:15 AM,68.4,55.0,62,30.16,10.0,South,16.1,28.8,N/A,,Mostly Cloudy,190,2013-03-29 16:15:00
11:35 AM,68.5,56.5,65,30.16,10.0,SW,18.4,-,N/A,,Overcast,220,2013-03-29 16:35:00
11:55 AM,69.8,55.4,60,30.16,10.0,South,18.4,25.3,N/A,,Overcast,190,2013-03-29 16:55:00
12:15 PM,69.6,55.8,61,30.16,10.0,SSW,16.1,24.2,N/A,,Mostly Cloudy,200,2013-03-29 17:15:00
12:35 PM,71.2,56.3,59,30.15,10.0,SSW,11.5,19.6,N/A,,Mostly Cloudy,200,2013-03-29 17:35:00
12:55 PM,70.2,55.4,59,30.14,10.0,South,13.8,23.0,N/A,,Overcast,190,2013-03-29 17:55:00
1:15 PM,71.1,55.2,57,30.13,10.0,SSW,15.0,-,N/A,,Overcast,200,2013-03-29 18:15:00
1:35 PM,71.2,54.9,56,30.13,10.0,South,17.3,-,N/A,,Overcast,180,2013-03-29 18:35:00
1:55 PM,71.6,54.9,55,30.12,10.0,South,15.0,21.9,N/A,,Overcast,190,2013-03-29 18:55:00
2:15 PM,71.1,55.2,57,30.12,10.0,South,10.4,17.3,N/A,,Overcast,190,2013-03-29 19:15:00
2:35 PM,72.7,54.7,53,30.11,10.0,South,13.8,20.7,N/A,,Overcast,190,2013-03-29 19:35:00
2:55 PM,71.6,55.2,56,30.11,10.0,South,12.7,-,N/A,,Overcast,190,2013-03-29 19:55:00
3:15 PM,72.5,55.6,55,30.10,10.0,South,11.5,18.4,N/A,,Overcast,170,2013-03-29 20:15:00
3:35 PM,72.0,55.2,55,30.09,10.0,South,12.7,19.6,N/A,,Overcast,190,2013-03-29 20:35:00
3:55 PM,73.8,55.0,52,30.08,10.0,South,11.5,18.4,N/A,,Overcast,190,2013-03-29 20:55:00
4:15 PM,73.2,55.2,53,30.08,10.0,South,12.7,-,N/A,,Overcast,190,2013-03-29 21:15:00
4:35 PM,73.0,54.7,52,30.07,10.0,South,15.0,18.4,N/A,,Overcast,170,2013-03-29 21:35:00
4:55 PM,72.7,54.9,53,30.07,10.0,South,12.7,20.7,N/A,,Overcast,170,2013-03-29 21:55:00
5:15 PM,72.5,54.9,54,30.08,10.0,South,11.5,-,N/A,,Overcast,180,2013-03-29 22:15:00
5:35 PM,72.7,55.0,54,30.08,10.0,SSW,15.0,19.6,N/A,,Overcast,200,2013-03-29 22:35:00
5:55 PM,72.5,55.4,55,30.08,10.0,South,11.5,-,N/A,,Mostly Cloudy,190,2013-03-29 22:55:00
6:15 PM,72.0,55.4,56,30.07,10.0,South,13.8,-,N/A,,Scattered Clouds,180,2013-03-29 23:15:00
6:35 PM,71.8,55.4,56,30.07,10.0,South,15.0,-,N/A,,Clear,190,2013-03-29 23:35:00
6:55 PM,71.4,55.4,57,30.06,10.0,SSE,11.5,-,N/A,,Scattered Clouds,160,2013-03-29 23:55:00
7:15 PM,70.7,55.4,58,30.06,10.0,SSE,8.1,-,N/A,,Mostly Cloudy,160,2013-03-30 00:15:00
7:35 PM,70.3,55.0,58,30.06,10.0,SSE,6.9,-,N/A,,Scattered Clouds,160,2013-03-30 00:35:00
7:55 PM,70.0,54.9,59,30.06,10.0,SSE,8.1,-,N/A,,Clear,160,2013-03-30 00:55:00
8:15 PM,69.8,54.7,59,30.07,10.0,SSE,5.8,-,N/A,,Clear,150,2013-03-30 01:15:00
8:35 PM,68.9,54.7,60,30.07,10.0,SSE,4.6,-,N/A,,Clear,150,2013-03-30 01:35:00
8:55 PM,68.4,54.9,62,30.07,10.0,SSE,4.6,-,N/A,,Clear,150,2013-03-30 01:55:00
9:15 PM,68.0,54.9,63,30.07,10.0,SE,3.5,-,N/A,,Clear,130,2013-03-30 02:15:00
9:35 PM,67.1,54.9,65,30.07,10.0,SE,4.6,-,N/A,,Clear,130,2013-03-30 02:35:00
9:55 PM,66.6,54.9,66,30.08,10.0,ESE,3.5,-,N/A,,Clear,110,2013-03-30 02:55:00
10:15 PM,66.4,55.2,67,30.09,10.0,SSE,3.5,-,N/A,,Clear,150,2013-03-30 03:15:00
10:35 PM,66.4,55.8,69,30.10,10.0,South,3.5,-,N/A,,Scattered Clouds,170,2013-03-30 03:35:00
10:55 PM,66.2,56.7,71,30.11,10.0,SSE,4.6,-,N/A,,Mostly Cloudy,160,2013-03-30 03:55:00
11:15 PM,65.7,56.3,72,30.11,10.0,SSE,6.9,-,N/A,,Overcast,150,2013-03-30 04:15:00
11:35 PM,65.7,56.3,72,30.12,10.0,SSE,5.8,-,N/A,,Overcast,150,2013-03-30 04:35:00
11:55 PM,65.7,56.5,72,30.12,10.0,SSE,6.9,-,N/A,,Overcast,160,2013-03-30 04:55:00